DW1779 Weather Reports


Display with metric or nautical units.
time (UTC)temp
F
wind
direction
speed
MPH
gust
MPH
rain 1hr
in
rain 24hr
in
rain mn
in
humidity
%
barometer
mb
20200330005559 60 273 1.0 3.0 0.00 0.00 0.00 36 1017.3
20200330005057 61 273 1.0 4.0 0.00 0.00 0.00 34 1017.2
20200330004737 61 281 1.0 7.0 0.00 0.00 0.00 35 1017.1
20200330004057 61 279 2.0 7.0 0.00 0.00 0.00 36 1017.2
20200330003557 61 280 2.0 8.0 0.00 0.00 0.00 34 1017.1
20200330003135 62 274 4.0 9.0 0.00 0.00 0.00 33 1017.1
20200330002629 62 284 4.0 10.0 0.00 0.00 0.00 33 1016.9
20200330002116 62 289 4.0 9.0 0.00 0.00 0.00 32 1016.9
20200330001639 63 290 4.0 14.0 0.00 0.00 0.00 32 1016.9
20200330001056 63 298 6.0 15.0 0.00 0.00 0.00 31 1016.9
20200330000554 64 279 9.0 15.0 0.00 0.00 0.00 32 1016.8
20200329235608 64 289 8.0 13.0 0.00 0.00 0.00 31 1016.8
20200329235056 64 289 7.0 16.0 0.00 0.00 0.00 31 1016.8
20200329234638 65 304 8.0 15.0 0.00 0.00 0.00 31 1016.7
20200329234112 65 322 8.0 16.0 0.00 0.00 0.00 31 1016.6
20200329233613 65 291 10.0 16.0 0.00 0.00 0.00 30 1016.4
20200329233112 65 281 9.0 16.0 0.00 0.00 0.00 29 1016.4
20200329232553 66 280 9.0 16.0 0.00 0.00 0.00 30 1016.4
20200329232113 66 298 8.0 18.0 0.00 0.00 0.00 29 1016.4
20200329231650 66 309 8.0 17.0 0.00 0.00 0.00 29 1016.4
20200329231055 66 298 8.0 16.0 0.00 0.00 0.00 30 1016.4
20200329230552 66 278 9.0 16.0 0.00 0.00 0.00 30 1016.3
20200329225553 66 280 7.0 19.0 0.00 0.00 0.00 28 1016.1
20200329225103 66 273 9.0 19.0 0.00 0.00 0.00 30 1016.1
20200329224617 66 292 8.0 19.0 0.00 0.00 0.00 29 1016.0
20200329224100 66 310 10.0 24.0 0.00 0.00 0.00 28 1016.0
20200329223621 67 291 12.0 26.0 0.00 0.00 0.00 27 1016.1
20200329223315 67 265 14.0 26.0 0.00 0.00 0.00 27 1015.9
20200329222551 67 287 8.0 20.0 0.00 0.00 0.00 28 1015.8
20200329222050 67 281 10.0 17.0 0.00 0.00 0.00 28 1015.8
20200329221633 67 298 7.0 17.0 0.00 0.00 0.00 30 1015.8
20200329221051 67 277 9.0 19.0 0.00 0.00 0.00 28 1015.8
20200329220551 67 273 9.0 24.0 0.00 0.00 0.00 30 1015.9
20200329215609 67 304 13.0 23.0 0.00 0.00 0.00 27 1015.7
20200329215050 67 276 11.0 23.0 0.00 0.00 0.00 27 1015.8
20200329214607 68 288 14.0 27.0 0.00 0.00 0.00 26 1015.7
20200329214052 68 302 12.0 27.0 0.00 0.00 0.00 28 1015.8
20200329213609 68 273 11.0 26.0 0.00 0.00 0.00 26 1015.8
20200329213229 68 277 8.0 25.0 0.00 0.00 0.00 28 1015.8
20200329212549 68 303 9.0 25.0 0.00 0.00 0.00 28 1015.7
20200329212049 68 297 10.0 23.0 0.00 0.00 0.00 29 1015.7
20200329211700 68 294 12.0 23.0 0.00 0.00 0.00 26 1015.6
20200329211051 67 279 12.0 23.0 0.00 0.00 0.00 28 1015.6
20200329210547 68 297 11.0 21.0 0.00 0.00 0.00 30 1015.7
20200329210013 67 281 11.0 20.0 0.00 0.00 0.00 28 1015.6
20200329205507 67 267 10.0 20.0 0.00 0.00 0.00 31 1015.5
20200329205007 67 288 10.0 23.0 0.00 0.00 0.00 29 1015.5
20200329204507 67 300 9.0 20.0 0.00 0.00 0.00 29 1015.4
20200329204006 67 294 8.0 20.0 0.00 0.00 0.00 30 1015.5
20200329203513 67 261 10.0 20.0 0.00 0.00 0.00 30 1015.4
20200329203014 67 317 8.0 21.0 0.00 0.00 0.00 31 1015.4
20200329202505 67 290 11.0 18.0 0.00 0.00 0.00 30 1015.4
20200329202009 67 266 10.0 21.0 0.00 0.00 0.00 29 1015.4
20200329201519 67 251 11.0 23.0 0.00 0.00 0.00 29 1015.4
20200329201004 67 294 8.0 23.0 0.00 0.00 0.00 28 1015.2
20200329200503 67 285 10.0 23.0 0.00 0.00 0.00 30 1015.2
20200329200011 67 291 12.0 23.0 0.00 0.00 0.00 30 1015.3
20200329195520 66 265 9.0 25.0 0.00 0.00 0.00 32 1015.4
20200329195012 66 297 12.0 25.0 0.00 0.00 0.00 30 1015.4
20200329194524 67 309 10.0 18.0 0.00 0.00 0.00 30 1015.4
20200329194006 66 296 10.0 20.0 0.00 0.00 0.00 29 1015.5
20200329193505 66 319 12.0 22.0 0.00 0.00 0.00 31 1015.6
20200329192504 66 300 12.0 21.0 0.00 0.00 0.00 31 1015.7
20200329192003 66 278 9.0 17.0 0.00 0.00 0.00 30 1015.7
20200329191514 65 285 8.0 21.0 0.00 0.00 0.00 30 1015.7
20200329191002 65 275 11.0 26.0 0.00 0.00 0.00 31 1015.8
20200329190501 65 295 12.0 26.0 0.00 0.00 0.00 32 1015.9
20200329190023 65 281 16.0 31.0 0.00 0.00 0.00 29 1016.0
20200329185510 64 264 13.0 31.0 0.00 0.03 0.00 29 1016.0
20200329185008 64 291 13.0 31.0 0.00 0.03 0.00 28 1016.0
20200329184516 65 292 13.0 31.0 0.00 0.03 0.00 30 1016.2
20200329184003 64 254 8.0 25.0 0.00 0.03 0.00 31 1016.0
20200329183503 64 275 9.0 25.0 0.00 0.03 0.00 29 1016.0
20200329183003 64 244 9.0 20.0 0.00 0.03 0.00 31 1015.8
20200329182503 64 317 12.0 20.0 0.00 0.03 0.00 29 1016.0
20200329182100 63 302 13.0 20.0 0.00 0.03 0.00 29 1015.9
20200329181606 63 293 10.0 21.0 0.00 0.03 0.00 29 1016.0
20200329181104 63 287 9.0 22.0 0.00 0.03 0.00 30 1016.1
20200329180603 63 252 12.0 23.0 0.00 0.03 0.00 31 1015.8
20200329180007 63 298 13.0 23.0 0.00 0.03 0.00 28 1015.8
20200329175506 63 326 11.0 23.0 0.00 0.09 0.00 30 1015.8
20200329175006 62 241 14.0 23.0 0.00 0.09 0.00 29 1016.0
20200329174505 63 271 10.0 23.0 0.00 0.09 0.00 32 1015.9
20200329174010 62 284 12.0 23.0 0.00 0.09 0.00 30 1015.8
20200329173501 62 298 11.0 23.0 0.00 0.09 0.00 32 1015.5
20200329173216 62 284 12.0 23.0 0.00 0.09 0.00 31 1015.7
20200329172606 62 267 10.0 19.0 0.00 0.09 0.00 32 1015.6
20200329172106 61 305 11.0 19.0 0.00 0.09 0.00 31 1015.5
20200329171744 61 294 11.0 18.0 0.00 0.09 0.00 30 1015.6
20200329171057 61 267 10.0 19.0 0.00 0.09 0.00 31 1015.6
20200329170601 61 308 10.0 19.0 0.00 0.09 0.00 36 1015.6
20200329170009 60 278 10.0 21.0 0.00 0.09 0.00 32 1015.6
20200329165507 60 292 12.0 21.0 0.00 0.28 0.00 34 1015.6
20200329165006 60 265 12.0 20.0 0.00 0.28 0.00 31 1015.5
20200329164506 60 294 7.0 20.0 0.00 0.28 0.00 35 1015.4
20200329163502 59 251 10.0 22.0 0.00 0.28 0.00 35 1015.3
20200329163003 59 290 12.0 19.0 0.00 0.28 0.00 35 1015.2
20200329162559 59 323 9.0 18.0 0.00 0.28 0.00 39 1015.2
20200329162114 58 300 11.0 18.0 0.00 0.28 0.00 34 1015.1
20200329161744 58 313 9.0 16.0 0.00 0.28 0.00 38 1015.1
20200329161057 58 306 9.0 18.0 0.00 0.28 0.00 43 1014.9
20200329160556 58 286 10.0 23.0 0.00 0.28 0.00 42 1015.0
20200329160007 57 291 12.0 23.0 0.00 0.28 0.00 39 1014.8
20200329155503 57 270 10.0 25.0 0.00 0.28 0.00 43 1014.7
20200329155005 56 269 14.0 25.0 0.00 0.28 0.00 41 1014.7
20200329154801 56 307 14.0 24.0 0.00 0.28 0.00 42 1014.6
20200329154058 56 279 13.0 23.0 0.00 0.28 0.00 42 1014.5
20200329153600 56 292 8.0 22.0 0.00 0.28 0.00 46 1014.6
20200329153124 56 278 14.0 22.0 0.00 0.28 0.00 44 1014.6
20200329152554 55 268 13.0 23.0 0.00 0.28 0.00 45 1014.3
20200329152053 55 293 12.0 23.0 0.00 0.28 0.00 47 1014.3
20200329151628 55 283 15.0 26.0 0.00 0.28 0.00 45 1014.2
20200329151110 55 320 15.0 26.0 0.00 0.28 0.00 49 1014.2
20200329150549 55 325 14.0 24.0 0.00 0.28 0.00 48 1014.1
20200329150003 54 254 14.0 22.0 0.00 0.28 0.00 48 1014.0
20200329145622 54 259 10.0 22.0 0.00 0.28 0.00 51 1014.0
20200329145059 55 278 11.0 22.0 0.00 0.28 0.00 51 1014.0
20200329144751 54 300 7.0 19.0 0.00 0.28 0.00 54 1013.8
20200329144055 54 296 9.0 20.0 0.00 0.28 0.00 54 1013.7
20200329143554 53 274 13.0 23.0 0.00 0.28 0.00 54 1013.6
20200329143230 53 301 10.0 23.0 0.00 0.28 0.00 57 1013.6
20200329142552 53 269 12.0 24.0 0.00 0.28 0.00 57 1013.5
20200329142050 52 288 11.0 24.0 0.00 0.28 0.00 58 1013.5
20200329141617 52 276 11.0 19.0 0.00 0.28 0.00 59 1013.4
20200329141048 52 273 9.0 21.0 0.00 0.28 0.00 60 1013.4
20200329140547 52 289 10.0 22.0 0.00 0.28 0.00 61 1013.3
20200329135556 51 262 7.0 25.0 0.00 0.28 0.00 62 1013.1
20200329135057 51 290 12.0 20.0 0.00 0.28 0.00 62 1013.0
20200329134757 50 271 10.0 20.0 0.00 0.28 0.00 64 1013.0
20200329134050 50 234 9.0 15.0 0.00 0.28 0.00 63 1013.0
20200329133604 50 313 8.0 24.0 0.00 0.28 0.00 65 1013.0
20200329133101 49 286 8.0 18.0 0.00 0.28 0.00 64 1012.8
20200329132544 49 269 7.0 16.0 0.00 0.28 0.00 65 1012.9
20200329132043 49 266 9.0 18.0 0.00 0.28 0.00 65 1012.7
20200329131607 49 293 10.0 18.0 0.00 0.28 0.00 66 1012.6
20200329131042 48 242 9.0 16.0 0.00 0.28 0.00 66 1012.4
20200329130546 48 271 5.0 21.0 0.00 0.28 0.00 67 1012.4
20200329130026 47 251 6.0 21.0 0.00 0.28 0.00 68 1012.2
20200329125513 47 271 8.0 15.0 0.00 0.28 0.00 68 1011.8
20200329125032 47 257 7.0 17.0 0.00 0.28 0.00 68 1012.0
20200329124518 47 252 8.0 17.0 0.00 0.28 0.00 69 1011.9
20200329124017 47 252 5.0 17.0 0.00 0.28 0.00 69 1011.8
20200329123508 46 302 6.0 13.0 0.00 0.28 0.00 69 1011.7
20200329123048 46 246 6.0 15.0 0.00 0.28 0.00 69 1011.7
20200329122520 46 266 10.0 15.0 0.00 0.28 0.00 69 1011.5
20200329122005 46 269 7.0 13.0 0.00 0.28 0.00 69 1011.4
20200329121509 46 283 6.0 13.0 0.00 0.28 0.00 69 1011.4
20200329121005 46 268 7.0 16.0 0.00 0.28 0.00 69 1011.3
20200329120502 46 235 3.0 16.0 0.00 0.28 0.00 69 1011.0
20200329120011 46 280 5.0 18.0 0.00 0.28 0.00 69 1010.9
20200329115509 46 250 10.0 18.0 0.00 0.28 0.00 69 1010.9
20200329115014 47 277 8.0 18.0 0.00 0.28 0.00 69 1010.8
20200329114509 47 277 7.0 20.0 0.00 0.28 0.00 69 1010.6
20200329114006 47 266 10.0 20.0 0.00 0.28 0.00 68 1010.5
20200329113505 47 285 7.0 14.0 0.00 0.28 0.00 68 1010.5
20200329112510 47 279 9.0 19.0 0.00 0.28 0.00 68 1010.2
20200329112001 47 304 9.0 16.0 0.00 0.28 0.00 68 1010.0
20200329111640 47 256 8.0 17.0 0.00 0.28 0.00 68 1010.0
20200329111117 47 298 8.0 17.0 0.00 0.28 0.00 68 1009.8
20200329110620 48 277 9.0 19.0 0.00 0.28 0.00 68 1009.6
20200329110015 48 266 10.0 19.0 0.00 0.28 0.00 68 1009.4
20200329105511 48 268 10.0 19.0 0.00 0.28 0.00 68 1009.2
20200329105006 48 307 8.0 15.0 0.00 0.28 0.00 67 1009.0
20200329104528 48 253 7.0 15.0 0.00 0.28 0.00 67 1009.0
20200329103502 49 290 7.0 18.0 0.00 0.28 0.00 65 1008.7
20200329103006 49 251 11.0 25.0 0.00 0.28 0.00 64 1008.6
20200329102559 49 269 8.0 25.0 0.00 0.28 0.00 64 1008.5
20200329102059 49 296 13.0 25.0 0.00 0.28 0.00 63 1008.1
20200329101644 49 279 13.0 30.0 0.00 0.28 0.00 63 1008.0
20200329101101 49 250 14.0 27.0 0.00 0.28 0.00 64 1008.1
20200329100603 49 297 11.0 22.0 0.00 0.28 0.00 64 1008.0
20200329095507 49 235 13.0 24.0 0.00 0.28 0.00 63 1007.8
20200329095004 49 302 12.0 24.0 0.00 0.28 0.00 64 1007.7
20200329094645 49 252 8.0 17.0 0.00 0.28 0.00 64 1007.6
20200329094102 49 273 8.0 15.0 0.00 0.28 0.00 64 1007.5
20200329093558 49 245 7.0 18.0 0.00 0.28 0.00 64 1007.3
20200329093132 49 272 9.0 22.0 0.00 0.28 0.00 63 1007.2
20200329092612 50 261 10.0 22.0 0.00 0.28 0.00 63 1007.1
20200329092111 50 240 9.0 23.0 0.00 0.28 0.00 62 1007.1
20200329091711 50 279 13.0 23.0 0.00 0.28 0.00 62 1007.0
20200329091053 50 261 10.0 20.0 0.00 0.28 0.00 62 1006.9
20200329090608 50 256 12.0 20.0 0.00 0.28 0.00 62 1006.7
20200329090005 50 270 8.0 23.0 0.00 0.28 0.00 62 1006.8
20200329085501 50 292 14.0 23.0 0.00 0.28 0.00 62 1006.7
20200329085002 50 256 11.0 22.0 0.00 0.28 0.00 62 1006.7
20200329084611 50 250 12.0 20.0 0.00 0.28 0.00 62 1006.7
20200329084103 50 279 8.0 23.0 0.00 0.28 0.00 63 1006.5
20200329083605 50 277 10.0 23.0 0.00 0.28 0.00 62 1006.3
20200329083157 50 255 9.0 19.0 0.00 0.28 0.00 62 1006.4
20200329082558 50 259 8.0 29.0 0.00 0.28 0.00 62 1006.4
20200329082055 51 261 13.0 29.0 0.00 0.28 0.00 61 1006.4
20200329081751 51 279 14.0 28.0 0.00 0.28 0.00 61 1006.4
20200329081053 51 294 16.0 28.0 0.00 0.28 0.00 61 1006.3
20200329080551 52 285 15.0 26.0 0.00 0.28 0.00 61 1006.2
20200329075559 52 277 8.0 18.0 0.00 0.28 0.00 62 1005.7
20200329075058 53 280 11.0 22.0 0.00 0.28 0.00 61 1005.7
20200329074640 53 303 13.0 22.0 0.00 0.28 0.00 60 1005.7
20200329074112 53 251 11.0 30.0 0.00 0.28 0.00 60 1005.6
20200329073557 53 273 14.0 30.0 0.00 0.28 0.00 59 1005.7
20200329073116 53 284 14.0 28.0 0.00 0.28 0.00 59 1005.6
20200329072552 53 226 11.0 19.0 0.00 0.28 0.00 58 1005.5
20200329072058 54 238 8.0 17.0 0.00 0.28 0.00 57 1005.4
20200329071606 54 252 8.0 18.0 0.00 0.28 0.00 57 1005.2
20200329071054 54 245 10.0 19.0 0.00 0.28 0.00 56 1005.1
20200329070602 55 268 11.0 19.0 0.00 0.28 0.00 55 1005.1
20200329065557 55 281 9.0 25.0 0.00 0.28 0.00 53 1005.0
20200329065056 55 279 6.0 25.0 0.00 0.28 0.00 53 1004.9
20200329064556 55 263 9.0 23.0 0.00 0.28 0.00 54 1004.8
20200329064054 56 279 11.0 23.0 0.00 0.28 0.00 53 1004.7
20200329063553 56 273 14.0 23.0 0.00 0.28 0.00 54 1004.7
20200329063209 56 308 7.0 15.0 0.00 0.28 0.00 56 1004.7
20200329062602 56 252 9.0 16.0 0.00 0.28 0.00 55 1004.6
20200329062049 57 271 9.0 17.0 0.00 0.28 0.00 54 1004.6
20200329061610 57 250 6.0 18.0 0.00 0.28 0.00 54 1004.4
20200329061047 57 254 8.0 28.0 0.00 0.28 0.00 53 1004.5
20200329060547 57 229 6.0 22.0 0.00 0.28 0.00 52 1004.4
20200329060021 57 277 8.0 25.0 0.00 0.28 0.00 51 1004.4
20200329055515 58 244 9.0 24.0 0.00 0.28 0.00 51 1004.5
20200329055010 58 267 11.0 23.0 0.00 0.28 0.00 50 1004.4
20200329054525 58 281 8.0 16.0 0.00 0.28 0.00 52 1004.5
20200329054014 58 273 7.0 14.0 0.00 0.28 0.00 53 1004.4
20200329053507 58 269 8.0 12.0 0.00 0.28 0.00 52 1004.3
20200329053006 58 256 3.0 8.0 0.00 0.28 0.00 52 1004.2
20200329052509 58 298 3.0 9.0 0.00 0.28 0.00 50 1004.1
20200329052009 59 273 4.0 13.0 0.00 0.28 0.00 50 1004.1
20200329051502 59 263 6.0 13.0 0.00 0.28 0.00 50 1003.9
20200329050559 59 277 4.0 15.0 0.00 0.28 0.00 49 1003.9
20200329045557 59 190 5.0 12.0 0.00 0.28 0.28 49 1003.9
20200329045106 59 284 5.0 12.0 0.00 0.28 0.28 49 1004.0
20200329044628 59 222 6.0 16.0 0.00 0.28 0.28 49 1003.9
20200329044056 58 214 5.0 16.0 0.00 0.28 0.28 50 1003.9
20200329043555 58 165 4.0 16.0 0.00 0.28 0.28 50 1003.9
20200329043257 58 171 4.0 12.0 0.00 0.28 0.28 51 1003.9
20200329042555 58 261 3.0 10.0 0.00 0.28 0.28 50 1004.0
20200329042112 58 231 3.0 12.0 0.00 0.28 0.28 50 1003.9
20200329041644 58 225 4.0 9.0 0.00 0.28 0.28 50 1004.0
20200329041055 58 165 2.0 11.0 0.00 0.28 0.28 50 1003.9
20200329040554 58 250 4.0 11.0 0.00 0.28 0.28 51 1003.9
20200329035603 57 242 2.0 5.0 0.00 0.28 0.28 50 1003.9
20200329035100 58 211 0.0 5.0 0.00 0.28 0.28 50 1003.8
20200329034635 58 221 0.0 6.0 0.00 0.28 0.28 50 1003.9
20200329034055 58 240 1.0 6.0 0.00 0.28 0.28 48 1003.8
20200329033603 58 202 1.0 5.0 0.00 0.28 0.28 48 1003.9
20200329033224 59 258 2.0 5.0 0.00 0.28 0.28 47 1003.7
20200329032552 59 244 2.0 7.0 0.00 0.28 0.28 47 1003.7
20200329032051 59 269 2.0 7.0 0.00 0.28 0.28 46 1003.8
20200329031644 59 208 2.0 8.0 0.00 0.28 0.28 47 1003.7
20200329031057 59 232 3.0 8.0 0.00 0.28 0.28 47 1003.5
20200329030552 59 246 3.0 6.0 0.00 0.28 0.28 48 1003.4
20200329025608 60 248 1.0 5.0 0.00 0.28 0.28 49 1003.1
20200329025058 60 275 1.0 5.0 0.00 0.28 0.28 48 1002.9
20200329024621 61 259 1.0 5.0 0.00 0.28 0.28 48 1003.0
20200329024054 61 254 2.0 9.0 0.00 0.28 0.28 47 1002.9
20200329023553 61 250 2.0 9.0 0.00 0.28 0.28 47 1003.0
20200329023100 62 257 2.0 9.0 0.00 0.28 0.28 47 1003.0
20200329022552 62 244 1.0 9.0 0.00 0.28 0.28 50 1002.8
20200329022058 62 223 2.0 7.0 0.00 0.28 0.28 50 1002.7
20200329021734 63 256 4.0 9.0 0.00 0.28 0.28 55 1002.5
20200329021050 63 221 4.0 9.0 0.00 0.28 0.28 63 1002.3
20200329020559 62 249 4.0 11.0 0.00 0.28 0.28 71 1002.3
20200329020020 62 248 5.0 11.0 0.00 0.28 0.28 81 1002.2
20200329015522 63 238 1.0 5.0 0.00 0.28 0.28 82 1002.0
20200329015015 63 249 2.0 6.0 0.00 0.28 0.28 81 1001.9
20200329014523 64 234 2.0 6.0 0.00 0.28 0.28 81 1001.7
20200329014010 64 238 1.0 5.0 0.00 0.28 0.28 80 1001.6
20200329013516 64 257 2.0 7.0 0.00 0.28 0.28 80 1001.6
20200329013040 64 210 2.0 10.0 0.00 0.28 0.28 79 1001.5
20200329012508 65 222 3.0 11.0 0.00 0.28 0.28 79 1001.5
20200329012006 65 240 2.0 8.0 0.00 0.28 0.28 78 1001.4
20200329011506 65 249 3.0 10.0 0.00 0.28 0.28 78 1001.2
20200329011007 65 210 2.0 10.0 0.00 0.28 0.28 78 1001.1